User: anonymous   Login
Location: Bergfeld
(52.0500°N, 11.7833°E)
Time: 21:18:50
(UTC+00:00)
Language:

Cosmos 1484 Rocket - Orbit

View from above orbital plane
View from above orbital plane
View from above satellite
View from above satellite

Ground track
Ground track

The orbit data is extracted from the following two-line orbital elements,

1 14208U 83075B   20158.58304236 +.00000239 +00000-0 +17857-4 0  9991
2 14208 097.3961 142.5832 0038382 347.9716 012.0594 15.11121937011091
Epoch (UTC): 06 June 2020 13:59:34
Eccentricity: 0.0038382
inclination: 97.3961°
perigee height: 506 km
apogee height: 559 km
right ascension of ascending node: 142.5832°
argument of perigee: 347.9716°
revolutions per day: 15.11121937
mean anomaly at epoch: 12.0594°
orbit number at epoch: 1109

The dashed part of the orbit path shows where the satellite is in the earth's shadow,  

DLR